Regional Weather Roundup
Issued by NWS Jackson, KY

Home | Current Version | Previous Version | Text Only | Print | Product List | Glossary On
Versions: 1 2 3 4 5 6 7 8 9 10 11 12 13 14 15 16 17 18 19 20 21 22 23 24 25 26 27
000
ASUS43 KJKL 221410
RWRJKL

EAST KENTUCKY HOURLY WEATHER ROUNDUP
NATIONAL WEATHER SERVICE JACKSON KY
900 AM EST SUN JAN 22 2017

NOTE: "FAIR" INDICATES FEW OR NO CLOUDS BELOW 12,000 FEET WITH
NO SIGNIFICANT WEATHER AND/OR OBSTRUCTIONS TO VISIBILITY.

* THESE REPORTS ARE NOT UNDER NWS QUALITY CONTROL AND MAY NOT
  REPORT WEATHER SUCH AS PRECIPITATION AND FOG.

KYZ079-080-083-085-087-088-110-112-115-119-120-221500
...EASTERN KENTUCKY...

CITY           SKY/WX    TMP DP  RH WIND       PRES   REMARKS
JACKSON        CLOUDY    50  48  93 VRB3      29.52F
LONDON         LGT RAIN  48  45  89 N6        29.52R
SOMERSET*      CLOUDY    46  46 100 CALM      29.51F
MONTICELLO*    CLOUDY    51  49  92 N10       29.51F
WILLIAMSBURG*  CLOUDY    46  46 100 E3        29.51F
MIDDLESBORO*   RAIN      47  47 100 CALM      29.54R
HARLAN APT*    CLOUDY    50  50 100 CALM      29.53R
PIKE CO APT*   PTSUNNY   52  50  94 E5        29.54S
BIG SANDY APT* CLOUDY    49  49 100 E5        29.54S
MOREHEAD APT*  CLOUDY    52  48  87 CALM      29.55F
ASHLAND*       CLOUDY    43  43 100 CALM      29.55F VSB 1/4
$$

KYZ035-036-041-042-044-050-067-078-099-221500
...CENTRAL KENTUCKY...

CITY           SKY/WX    TMP DP  RH WIND       PRES   REMARKS
MT STERLING*   PTSUNNY   48  48 100 E3        29.56R
FLEMING/MASON* MOSUNNY   48  48  99 E8        29.57S
DANVILLE*      CLOUDY    46  46 100 NE3       29.53S FOG
LEXINGTON      CLOUDY    51  48  89 NE9       29.53F
FRANKFORT      CLOUDY    51  47  86 NE5       29.53S
LOUISVILLE     CLOUDY    50  47  89 N6        29.52F
LEBANON*       PTSUNNY   50  50 100 E6        29.51F
GLASGOW*       CLOUDY    51  51 100 NE3       29.49S
BOWLING GREEN  CLOUDY    53  50  89 CALM      29.49S
$$

KYZ091>093-OHZ055-061-077-WVZ005-015-034-035-042-221500
...SOUTHERN OHIO/WEST VIRGINIA...

CITY           SKY/WX    TMP DP  RH WIND       PRES   REMARKS
COVINGTON      CLOUDY    51  49  92 E9        29.56F
COLUMBUS       CLOUDY    50  47  89 NW5       29.61F
DAYTON         CLOUDY    45  45 100 NE6       29.61F
WILMINGTON     CLOUDY    48  47  96 NE8       29.59S
HUNTINGTON     CLOUDY    49  47  93 NE7       29.55F
CHARLESTON     CLOUDY    46  45  96 NE3       29.57F FOG
PINEVILLE*     PTSUNNY   46  45  93 MISG      29.63F
BECKLEY        CLOUDY    50  47  89 SE12G21   29.61F
BLUEFIELD      CLOUDY    48  47  96 VRB7G18   29.63F
LOGAN CO APT*    N/A     54  50  87 SE9       29.56F
$$

VAZ002-007-008-TNZ017-027-036-066-071-221500
...SOUTHWEST VIRGINIA/EAST TENNESSEE...

CITY           SKY/WX    TMP DP  RH WIND       PRES   REMARKS
WISE*          CLOUDY    52  52 100 CALM      29.55F
JONESVILLE*      N/A     50  50 100 E5        29.55R
ABINGDON*      PTSUNNY   54  52  94 E8        29.56R
BRISTOL        CLOUDY    50  48  93 CALM      29.53F
MORRISTOWN*    CLOUDY    54  52  94 NE6       29.50R FOG
SEVIERVILLE*   PTSUNNY   48  48 100 CALM      29.48S
KNOXVILLE      PTSUNNY   52  50  93 CALM      29.48R
LAFOLLETTE*    CLOUDY    46  46 100 CALM      29.53F FOG
OAK RIDGE      RAIN      51  49  92 VRB5      29.51R FOG
CROSSVILLE     CLOUDY    52  51  97 VRB3      29.47F
NASHVILLE      LGT RAIN  54  52  93 S3        29.49R
$$

...KEY TO REMARKS...
VSB - VISIBILITY IN MILES
WCI - WIND CHILL INDEX
HX  - HEAT INDEX

$$




USA.gov is the U.S. government's official web portal to all federal, state and local government web resources and services.